This is the latest recevied weather packets stored in our database for station/object NC4J. If no packets are shown the sender has not sent any weather packets the latest 10 day(s).
| Time | Temp. | Humidity | Pressure | Rain* | Wind** | Luminosity | Snow |
|---|---|---|---|---|---|---|---|
| 1777135272 | 20° C | 61% | 1012.3 hPa | 0 mm | - | 172 W/m² | - |
| 1777134970 | 20° C | 61% | 1012.4 hPa | 0 mm | - | 158 W/m² | - |
| 1777134667 | 20.56° C | 61% | 1012.4 hPa | 0 mm | - | 143 W/m² | - |
| 1777134362 | 20.56° C | 60% | 1012.3 hPa | 0 mm | - | 131 W/m² | - |
| 1777134059 | 20.56° C | 59% | 1012.3 hPa | 0 mm | - | 129 W/m² | - |
| 1777133756 | 20.56° C | 57% | 1012.3 hPa | 0 mm | - | 156 W/m² | - |
| 1777133451 | 20.56° C | 57% | 1012.2 hPa | 0 mm | - | 168 W/m² | - |
| 1777133150 | 20.56° C | 61% | 1012.3 hPa | 0 mm | - | 167 W/m² | - |
| 1777132846 | 20.56° C | 59% | 1012.3 hPa | 0 mm | - | 155 W/m² | - |
| 1777132542 | 20.56° C | 58% | 1012.4 hPa | 0 mm | - | 158 W/m² | - |
| 1777132240 | 20.56° C | 58% | 1012.6 hPa | 0 mm | - | 159 W/m² | - |
| 1777131935 | 20° C | 58% | 1012.2 hPa | 0 mm | - | 168 W/m² | - |
| 1777131633 | 20° C | 61% | 1012.5 hPa | 0 mm | - | 212 W/m² | - |
| 1777131333 | 19.44° C | 63% | 1012.4 hPa | 0 mm | - | 190 W/m² | - |
| 1777131028 | 19.44° C | 63% | 1012.3 hPa | 0 mm | - | 176 W/m² | - |
| 1777130724 | 18.89° C | 66% | 1012.5 hPa | 0 mm | - | 163 W/m² | - |
| 1777130421 | 18.89° C | 64% | 1012.6 hPa | 0 mm | - | 152 W/m² | - |
| 1777130116 | 18.33° C | 66% | 1012.6 hPa | 0 mm | - | 138 W/m² | - |
| 1777129813 | 18.33° C | 64% | 1012.8 hPa | 0 mm | - | 107 W/m² | - |
| 1777129513 | 18.33° C | 66% | 1012.5 hPa | 0 mm | - | 87 W/m² | - |
| 1777129212 | 18.33° C | 66% | 1012.8 hPa | 0 mm | - | 82 W/m² | - |
| 1777128909 | 18.33° C | 67% | 1012.6 hPa | 0 mm | - | 87 W/m² | - |
| 1777128605 | 17.78° C | 66% | 1012.8 hPa | 0 mm | - | 103 W/m² | - |
| 1777128303 | 17.78° C | 68% | 1012.8 hPa | 0 mm | - | 138 W/m² | - |
| 1777127999 | 17.22° C | 69% | 1012.6 hPa | 0 mm | - | 144 W/m² | - |
* Rain latest hour (hover to see other rain measurements)
** Current wind speed in m/s (hover to see current wind gust speed)